This demonstration page uses our WeatherBlox Daily Observations layout. Learn more.

Left ArrowRight Arrow

30.21309, -93.2044

Hourly Observations for March 30, 2015

Temp ( °F °C ) Dew Point ( °F °C ) Humidity (%) Winds ( mph kmh ) Pressure ( in mb ) Visibility ( mi km ) Precip ( " mm )
12:15 am 00:15 Clear 62 16.8 62 16.5 98 98 S 6 9 30.15 1021 10 16 0.00 0.00
12:35 am 00:35 Clear 63 17.3 63 17 98 98 S 5 7 30.15 1021 10 16 0.00 0.00
12:55 am 00:55 Clear 63 17.4 63 17.1 98 98 Calm 30.18 1022 10 16 0.00 0.00
1:15 am 01:15 Clear 63 17 61 16.3 96 96 Calm 30.18 1022 10 16 0.00 0.00
1:35 am 01:35 Partly Cloudy 63 17 62 16.8 99 99 Calm 30.18 1022 7 11 0.00 0.00
1:55 am 01:55 Mostly Cloudy 62 16.4 61 16.1 98 98 Calm 30.18 1022 10 16 0.00 0.00
2:15 am 02:15 Partly Cloudy 61 16 60 15.7 98 98 Calm 30.18 1022 10 16 0.00 0.00
2:35 am 02:35 Mostly Cloudy with Mist and Fog 59 15 58 14.7 98 98 Calm 30.18 1022 2 3 0.00 0.00
2:55 am 02:55 Mostly Cloudy with Mist and Fog 60 15.7 60 15.5 99 99 SSE 3 6 30.15 1021 4 6 0.00 0.00
3:15 am 03:15 Cloudy with Fog 57 14.1 57 14 99 99 SSE 6 9 30.15 1021 0 0 0.00 0.00
3:35 am 03:35 Cloudy with Fog 57 14 57 13.9 99 99 SSE 5 7 30.15 1021 0 0 0.00 0.00
3:55 am 03:55 Cloudy with Fog 61 16.2 61 16.2 100 100 Calm 30.15 1021 0 0 0.00 0.00
4:15 am 04:15 Cloudy with Fog 61 16.1 61 16.1 100 100 Calm 30.15 1021 1 1 0.00 0.00
4:35 am 04:35 Cloudy with Mist and Fog 60 15.6 60 15.5 99 99 Calm 30.18 1022 1 2 0.00 0.00
4:55 am 04:55 Mostly Cloudy with Mist and Fog 58 14.3 57 14.1 99 99 Calm 30.18 1022 1 1 0.00 0.00
5:15 am 05:15 Mostly Cloudy with Mist and Fog 58 14.5 58 14.4 99 99 Calm 30.18 1022 1 2 0.00 0.00
6:00 am 06:00 Mostly Cloudy 61 16 61 16 100 100 Calm 30.18 1022 7 11 0.00 0.00
6:55 am 06:55 Mostly Cloudy with Mist and Fog 57 14 57 14 100 100 Calm 30.21 1023 1 2 0.00 0.00
7:55 am 07:55 Partly Cloudy with Mist and Fog 59 15 59 15 100 100 Calm 30.24 1024 6 10 0.00 0.00
8:55 am 08:55 Partly Cloudy 64 18 64 18 100 100 Calm 30.24 1024 10 16 0.00 0.00
9:50 am 09:50 Partly Cloudy 72 22 64 18 78 78 SW 8 13 30.24 1024 10 16 0.00 0.00
10:50 am 10:50 Partly Cloudy 75 24 61 16 61 61 SSW 12 19 30.24 1024 10 16 0.00 0.00
12:55 pm 12:55 Mostly Cloudy 79 26 61 16 54 54 SW 16 26 30.24 1024 10 16 0.00 0.00
1:47 pm 13:47 Partly Cloudy 81 27 57 14 45 45 SW 17 28 30.21 1023 10 16 0.00 0.00
8:50 pm 20:50 Mostly Clear 68 20 64 18 88 88 SSW 6 9 30.15 1021 10 16 0.00 0.00
9:50 pm 21:50 Mostly Clear 66 19 64 18 94 94 SSW 5 7 30.15 1021 10 16 0.00 0.00
10:15 pm 22:15 Clear 64 17.5 62 16.6 95 95 S 5 7 30.15 1021 10 16 0.00 0.00
10:35 pm 22:35 Clear 62 16.6 61 16.1 97 97 S 6 9 30.15 1021 10 16 0.00 0.00
10:55 pm 22:55 Clear 62 16.6 61 16.2 98 98 S 5 7 30.15 1021 10 16 0.00 0.00
11:15 pm 23:15 Clear with Mist and Fog 60 15.8 60 15.6 99 99 SSE 3 6 30.15 1021 5 8 0.00 0.00
11:35 pm 23:35 Clear with Mist and Fog 60 15.7 60 15.6 99 99 S 5 7 30.15 1021 3 5 0.00 0.00
11:55 pm 23:55 Mostly Cloudy with Mist and Fog 61 16 61 15.9 99 99 S 3 6 30.15 1021 1 2 0.00 0.00

Powered by AerisWeather